Weather History for Pine Bluff, AR

Change the Weather History Date:

Friday, February 8, 2013

  Actual Average Record
Temperature  
Mean Temperature 46 °F 45 °F  
Max Temperature 56 °F 54 °F 80 °F (1918)
Min Temperature 36 °F 35 °F 8 °F (1933)
Degree Days  
Heating Degree Days 19 20  
Month to date heating degree days 140 168  
Since 1 July heating degree days 1814 2026  
Cooling Degree Days 0 0  
Month to date cooling degree days 0 0  
Year to date cooling degree days 5 1  
Moisture  
Dew Point 44 °F    
Average Humidity 80    
Maximum Humidity 100    
Minimum Humidity 59    
Precipitation  
Precipitation 0.20 in 0.14 in 1.74 in (1956)
Month to date precipitation 0.28 1.05  
Year to date precipitation 7.21 4.81  
Snow  
Snow 0.00 in 0.10 in 1.00 in (1971)
Month to date snowfall 0.0 0.4  
Since 1 July snowfall 2.1 2.9  
Snow Depth 0.00 in    
Sea Level Pressure  
Sea Level Pressure 30.13 in    
Wind  
Wind Speed 13 mph (NNE)    
Max Wind Speed 21 mph    
Max Gust Speed 28 mph    
Visibility 9 miles    
Events Rain    
T = Trace of Precipitation, MM = Missing Value Source: NWS Daily Summary

Daily Weather History Graph

Daily Weather History Graph

Search for Another Location

Airport:

Trip Planner

Search our weather history database for the weather conditions in past years. The results will help you decide how hot, cold, wet, or windy it might be!

Date:

Astronomy

Feb. 08, 2013 Rise Set
Actual Time 6:59 AM CST 5:45 PM CST
Civil Twilight 6:33 AM CST 6:11 PM CST
Nautical Twilight 6:03 AM CST 6:40 PM CST
Astronomical Twilight 5:34 AM CST 7:10 PM CST
Moon 5:25 AM CST (2/8) 4:20 PM CST (2/8)
Length of Visible Light 11h 37m
Length of Day
10h 46m
Waning Crescent, 3% of the Moon is Illuminated
Feb 8
Waning Crescent
Feb 10
New
Feb 17
First Quarter
Feb 25
Full
Mar 4
Last Quarter

Hourly Weather History & Observations

Time (CST) Temp. Windchill Dew Point Humidity Pressure Visibility Wind Dir Wind Speed Gust Speed Precip Events Conditions
12:50 AM 55.4 °F - 55.4 °F 100% 29.95 in 1.0 mi NW 11.5 mph 16.1 mph 0.00 in Rain Light Rain
12:53 AM 55.9 °F - 55.0 °F 97% 29.95 in 1.8 mi NNW 16.1 mph 21.9 mph 0.00 in Rain Light Rain
12:55 AM 55.4 °F - 55.4 °F 100% 29.95 in 3.0 mi NNW 15.0 mph 21.9 mph 0.00 in Rain Light Rain
1:03 AM 53.6 °F - 53.6 °F 100% 29.95 in 10.0 mi NNW 16.1 mph 21.9 mph 0.00 in Rain Light Rain
1:15 AM 53.6 °F - 53.6 °F 100% 29.96 in 6.0 mi North 15.0 mph 23.0 mph 0.03 in Rain Rain
1:53 AM 54.0 °F - 53.1 °F 97% 29.95 in 6.0 mi North 17.3 mph - 0.16 in Rain Heavy Rain
2:42 AM 53.6 °F - 51.8 °F 94% 29.98 in 10.0 mi NNW 10.4 mph - 0.03 in   Overcast
2:51 AM 53.6 °F - 51.8 °F 94% 29.99 in 10.0 mi North 10.4 mph - 0.03 in   Overcast
2:53 AM 54.0 °F - 52.0 °F 93% 29.99 in 10.0 mi North 10.4 mph - 0.03 in   Overcast
3:07 AM 53.6 °F - 51.8 °F 94% 30.00 in 10.0 mi NNW 9.2 mph - N/A   Overcast
3:18 AM 53.6 °F - 51.8 °F 94% 30.00 in 10.0 mi North 11.5 mph 18.4 mph N/A   Overcast
3:37 AM 53.6 °F - 51.8 °F 94% 30.01 in 10.0 mi North 12.7 mph - N/A   Overcast
3:44 AM 53.6 °F - 50.0 °F 88% 30.02 in 10.0 mi North 15.0 mph - N/A   Overcast
3:53 AM 53.1 °F - 50.0 °F 89% 30.02 in 10.0 mi North 12.7 mph - N/A   Overcast
4:29 AM 51.8 °F - 48.2 °F 88% 30.04 in 10.0 mi North 18.4 mph 25.3 mph N/A   Overcast
4:53 AM 51.1 °F - 46.9 °F 86% 30.05 in 10.0 mi North 15.0 mph 26.5 mph N/A   Overcast
5:53 AM 50.0 °F - 43.0 °F 77% 30.09 in 10.0 mi North 18.4 mph 26.5 mph N/A   Overcast
6:32 AM 48.2 °F - 42.8 °F 82% 30.12 in 10.0 mi North 13.8 mph 24.2 mph 0.00 in Rain Light Rain
6:53 AM 48.9 °F - 43.0 °F 80% 30.13 in 10.0 mi North 13.8 mph - 0.01 in   Overcast
7:46 AM 48.2 °F - 42.8 °F 82% 30.18 in 10.0 mi North 12.7 mph - N/A   Overcast
7:53 AM 48.0 °F - 43.0 °F 83% 30.18 in 10.0 mi North 13.8 mph - N/A   Overcast
8:53 AM 48.0 °F - 39.9 °F 74% 30.21 in 10.0 mi North 16.1 mph 25.3 mph N/A   Overcast
9:53 AM 46.9 °F - 39.0 °F 74% 30.25 in 10.0 mi North 17.3 mph 26.5 mph N/A   Overcast
10:53 AM 46.9 °F - 37.9 °F 71% 30.27 in 10.0 mi NNE 17.3 mph - N/A   Mostly Cloudy
11:08 AM 48.2 °F - 39.2 °F 71% 30.27 in 10.0 mi NE 18.4 mph 27.6 mph N/A   Scattered Clouds
11:53 AM 50.0 °F - 39.0 °F 66% 30.27 in 10.0 mi NNE 15.0 mph 21.9 mph N/A   Scattered Clouds
12:53 PM 51.1 °F - 39.0 °F 63% 30.25 in 10.0 mi NNE 18.4 mph 25.3 mph N/A   Partly Cloudy
1:53 PM 52.0 °F - 39.0 °F 61% 30.24 in 10.0 mi NE 11.5 mph 20.7 mph N/A   Partly Cloudy
2:53 PM 51.1 °F - 37.9 °F 61% 30.25 in 10.0 mi ENE 9.2 mph - N/A   Clear
3:53 PM 50.0 °F - 37.9 °F 63% 30.24 in 10.0 mi NNE 13.8 mph - N/A   Clear
4:53 PM 48.0 °F - 37.0 °F 66% 30.26 in 10.0 mi NE 9.2 mph - N/A   Clear
5:53 PM 45.0 °F 41.2 °F 37.0 °F 74% 30.27 in 10.0 mi NNE 6.9 mph - N/A   Clear
6:53 PM 43.0 °F 38.2 °F 37.0 °F 80% 30.27 in 10.0 mi NE 8.1 mph - N/A   Clear
7:53 PM 43.0 °F 38.2 °F 36.0 °F 76% 30.28 in 10.0 mi NE 8.1 mph - N/A   Clear
8:53 PM 41.0 °F 35.8 °F 37.0 °F 86% 30.29 in 9.0 mi East 8.1 mph - N/A   Partly Cloudy
9:53 PM 39.0 °F 32.8 °F 35.1 °F 86% 30.31 in 7.0 mi East 9.2 mph - N/A   Clear
10:53 PM 37.0 °F 30.4 °F 33.1 °F 86% 30.30 in 7.0 mi ENE 9.2 mph - N/A   Clear
11:53 PM 36.0 °F 30.3 °F 33.1 °F 89% 30.29 in 6.0 mi NE 6.9 mph - N/A   Clear